contact:dominique.lefevre@mio.osupytheas.fr, maurice.libes@osupytheas.fr, didier.mallarino@osupytheas.fr
Project:EMSO http://www.emso-fr.org/EMSO-France
Depth: 2436.0 m
Title:EMSO Ligure Ouest : Data MII capteur MICROCAT
DateTime_Computer,Latitude,Longitude,Temperature,Conductivity,Pressure,DateTime_Instrument
DateTime_Computer,Latitude,Longitude,degC,S m-1,dbar,DateTime_Instrument
2021-01-14T00:01:21Z,42.805,6.029,13.2979,4.59984,2470.017,2021-1-14T02:02:23Z
2021-01-14T00:04:25Z,42.805,6.029,13.2983,4.59983,2469.993,2021-1-14T02:05:26Z
2021-01-14T00:07:28Z,42.805,6.029,13.2990,4.59986,2469.984,2021-1-14T02:08:29Z
2021-01-14T00:10:31Z,42.805,6.029,13.2979,4.59984,2470.017,2021-1-14T02:11:32Z
2021-01-14T00:13:34Z,42.805,6.029,13.2983,4.59986,2469.97,2021-1-14T02:14:35Z
2021-01-14T00:16:37Z,42.805,6.029,13.2983,4.59983,2470.04,2021-1-14T02:17:38Z
2021-01-14T00:19:40Z,42.805,6.029,13.2985,4.59985,2470.017,2021-1-14T02:20:41Z
2021-01-14T00:22:43Z,42.805,6.029,13.2983,4.59983,2470.007,2021-1-14T02:23:45Z
2021-01-14T00:25:46Z,42.805,6.029,13.2982,4.59985,2470.017,2021-1-14T02:26:48Z
2021-01-14T00:28:50Z,42.805,6.029,13.2981,4.59986,2469.993,2021-1-14T02:29:51Z
2021-01-14T00:31:53Z,42.805,6.029,13.2981,4.59983,2470.03,2021-1-14T02:32:54Z
2021-01-14T00:34:56Z,42.805,6.029,13.2983,4.59986,2469.97,2021-1-14T02:35:57Z
2021-01-14T00:37:59Z,42.805,6.029,13.2981,4.59986,2469.993,2021-1-14T02:39:00Z
2021-01-14T00:41:02Z,42.805,6.029,13.2983,4.59984,2469.96,2021-1-14T02:42:03Z
2021-01-14T00:44:05Z,42.805,6.029,13.2982,4.59986,2470.017,2021-1-14T02:45:06Z
2021-01-14T00:47:08Z,42.805,6.029,13.2981,4.59986,2469.993,2021-1-14T02:48:10Z
2021-01-14T00:50:11Z,42.805,6.029,13.2979,4.59986,2470.017,2021-1-14T02:51:13Z
2021-01-14T00:53:15Z,42.805,6.029,13.2983,4.59985,2470.007,2021-1-14T02:54:16Z
2021-01-14T00:56:18Z,42.805,6.029,13.2983,4.59985,2469.993,2021-1-14T02:57:19Z
2021-01-14T00:59:21Z,42.805,6.029,13.2985,4.59983,2470.017,2021-1-14T03:00:22Z
2021-01-14T01:02:24Z,42.805,6.029,13.2985,4.59987,2469.979,2021-1-14T03:03:25Z
2021-01-14T01:05:27Z,42.805,6.029,13.2984,4.59987,2470.007,2021-1-14T03:06:28Z
2021-01-14T01:08:30Z,42.805,6.029,13.2983,4.59984,2470.007,2021-1-14T03:09:31Z
2021-01-14T01:11:33Z,42.805,6.029,13.2981,4.59983,2469.97,2021-1-14T03:12:35Z
2021-01-14T01:14:36Z,42.805,6.029,13.2983,4.59983,2469.97,2021-1-14T03:15:38Z
2021-01-14T01:17:40Z,42.805,6.029,13.2981,4.59988,2469.96,2021-1-14T03:18:41Z
2021-01-14T01:20:43Z,42.805,6.029,13.2985,4.59985,2469.97,2021-1-14T03:21:44Z
2021-01-14T01:23:46Z,42.805,6.029,13.2986,4.59986,2469.984,2021-1-14T03:24:47Z
2021-01-14T01:26:49Z,42.805,6.029,13.2983,4.59983,2469.97,2021-1-14T03:27:50Z
2021-01-14T01:29:52Z,42.805,6.029,13.2982,4.59991,2470.007,2021-1-14T03:30:53Z
2021-01-14T01:32:55Z,42.805,6.029,13.2981,4.59985,2469.923,2021-1-14T03:33:56Z
2021-01-14T01:35:58Z,42.805,6.029,13.2983,4.59986,2469.97,2021-1-14T03:37:00Z
2021-01-14T01:39:01Z,42.805,6.029,13.2985,4.59984,2469.97,2021-1-14T03:40:03Z
2021-01-14T01:42:04Z,42.805,6.029,13.2982,4.59985,2469.997,2021-1-14T03:43:06Z
2021-01-14T01:45:08Z,42.805,6.029,13.2983,4.59986,2469.97,2021-1-14T03:46:09Z
2021-01-14T01:48:11Z,42.805,6.029,13.2983,4.59983,2469.97,2021-1-14T03:49:12Z
2021-01-14T01:51:14Z,42.805,6.029,13.2980,4.59984,2469.984,2021-1-14T03:52:15Z
2021-01-14T01:54:17Z,42.805,6.029,13.2981,4.59987,2469.97,2021-1-14T03:55:18Z
2021-01-14T01:57:20Z,42.805,6.029,13.2982,4.59985,2470.007,2021-1-14T03:58:21Z
2021-01-14T02:00:23Z,42.805,6.029,13.2989,4.59984,2469.993,2021-1-14T04:01:25Z
2021-01-14T02:03:26Z,42.805,6.029,13.2979,4.59983,2469.947,2021-1-14T04:04:28Z
2021-01-14T02:06:29Z,42.805,6.029,13.2982,4.59983,2469.947,2021-1-14T04:07:31Z
2021-01-14T02:09:33Z,42.805,6.029,13.2982,4.59985,2469.923,2021-1-14T04:10:34Z
2021-01-14T02:12:36Z,42.805,6.029,13.2982,4.59984,2469.984,2021-1-14T04:13:37Z
2021-01-14T02:15:39Z,42.805,6.029,13.2983,4.59985,2469.984,2021-1-14T04:16:40Z
2021-01-14T02:18:42Z,42.805,6.029,13.2980,4.59986,2469.993,2021-1-14T04:19:43Z
2021-01-14T02:21:45Z,42.805,6.029,13.2983,4.59985,2469.96,2021-1-14T04:22:46Z
2021-01-14T02:24:48Z,42.805,6.029,13.2982,4.59984,2469.984,2021-1-14T04:25:49Z
2021-01-14T02:27:51Z,42.805,6.029,13.2983,4.59984,2469.97,2021-1-14T04:28:53Z
2021-01-14T02:30:54Z,42.805,6.029,13.2983,4.59986,2469.97,2021-1-14T04:31:56Z
2021-01-14T02:33:58Z,42.805,6.029,13.2984,4.59985,2469.97,2021-1-14T04:34:59Z
2021-01-14T02:37:01Z,42.805,6.029,13.2983,4.59983,2469.984,2021-1-14T04:38:02Z
2021-01-14T02:40:04Z,42.805,6.029,13.2980,4.59985,2469.97,2021-1-14T04:41:05Z
2021-01-14T02:43:07Z,42.805,6.029,13.2981,4.59983,2469.97,2021-1-14T04:44:08Z
2021-01-14T02:46:10Z,42.805,6.029,13.2986,4.59984,2469.993,2021-1-14T04:47:11Z
2021-01-14T02:49:13Z,42.805,6.029,13.2981,4.59986,2469.97,2021-1-14T04:50:14Z
2021-01-14T02:52:16Z,42.805,6.029,13.2984,4.59986,2469.993,2021-1-14T04:53:18Z
2021-01-14T02:55:19Z,42.805,6.029,13.2990,4.59984,2470.007,2021-1-14T04:56:21Z
2021-01-14T02:58:23Z,42.805,6.029,13.2984,4.59985,2470.017,2021-1-14T04:59:24Z
2021-01-14T03:01:26Z,42.805,6.029,13.2983,4.59984,2470.007,2021-1-14T05:02:27Z
2021-01-14T03:04:29Z,42.805,6.029,13.2986,4.59984,2469.97,2021-1-14T05:05:30Z
2021-01-14T03:07:32Z,42.805,6.029,13.2987,4.59986,2469.993,2021-1-14T05:08:33Z
2021-01-14T03:10:35Z,42.805,6.029,13.2984,4.59986,2470.03,2021-1-14T05:11:36Z
2021-01-14T03:13:38Z,42.805,6.029,13.2982,4.59986,2470.017,2021-1-14T05:14:39Z
2021-01-14T03:16:41Z,42.805,6.029,13.2983,4.59986,2470.007,2021-1-14T05:17:43Z
2021-01-14T03:19:44Z,42.805,6.029,13.2979,4.59986,2469.993,2021-1-14T05:20:46Z
2021-01-14T03:22:48Z,42.805,6.029,13.2980,4.59986,2470.03,2021-1-14T05:23:49Z
2021-01-14T03:25:51Z,42.805,6.029,13.2981,4.59985,2470.007,2021-1-14T05:26:52Z
2021-01-14T03:28:54Z,42.805,6.029,13.2982,4.59985,2470.007,2021-1-14T05:29:55Z
2021-01-14T03:31:57Z,42.805,6.029,13.2980,4.59985,2469.993,2021-1-14T05:32:58Z
2021-01-14T03:35:00Z,42.805,6.029,13.2983,4.59984,2469.993,2021-1-14T05:36:01Z
2021-01-14T03:38:03Z,42.805,6.029,13.2983,4.59984,2470.017,2021-1-14T05:39:04Z
2021-01-14T03:41:06Z,42.805,6.029,13.2983,4.59983,2470.03,2021-1-14T05:42:08Z
2021-01-14T03:44:09Z,42.805,6.029,13.2988,4.59983,2469.993,2021-1-14T05:45:11Z
2021-01-14T03:47:13Z,42.805,6.029,13.2977,4.59984,2470.017,2021-1-14T05:48:14Z
2021-01-14T03:50:16Z,42.805,6.029,13.2981,4.59985,2470.03,2021-1-14T05:51:17Z
2021-01-14T03:53:19Z,42.805,6.029,13.2981,4.59986,2470.04,2021-1-14T05:54:20Z
2021-01-14T03:56:22Z,42.805,6.029,13.2982,4.59984,2470.017,2021-1-14T05:57:23Z
2021-01-14T03:59:25Z,42.805,6.029,13.2986,4.59984,2470.017,2021-1-14T06:00:26Z
2021-01-14T04:02:28Z,42.805,6.029,13.2982,4.59984,2470.04,2021-1-14T06:03:29Z
2021-01-14T04:05:31Z,42.805,6.029,13.2982,4.59985,2470.053,2021-1-14T06:06:33Z
2021-01-14T04:08:34Z,42.805,6.029,13.2986,4.59986,2470.053,2021-1-14T06:09:36Z
2021-01-14T04:11:38Z,42.805,6.029,13.2980,4.59986,2470.053,2021-1-14T06:12:39Z
2021-01-14T04:14:41Z,42.805,6.029,13.2981,4.59986,2470.04,2021-1-14T06:15:42Z
2021-01-14T04:17:44Z,42.805,6.029,13.2982,4.59984,2470.063,2021-1-14T06:18:45Z
2021-01-14T04:20:47Z,42.805,6.029,13.2987,4.59985,2470.1,2021-1-14T06:21:48Z
2021-01-14T04:23:50Z,42.805,6.029,13.2980,4.59986,2470.087,2021-1-14T06:24:51Z
2021-01-14T04:26:53Z,42.805,6.029,13.2982,4.59985,2470.087,2021-1-14T06:27:54Z
2021-01-14T04:29:56Z,42.805,6.029,13.2984,4.59985,2470.049,2021-1-14T06:30:58Z
2021-01-14T04:32:59Z,42.805,6.029,13.2982,4.59988,2470.063,2021-1-14T06:34:01Z
2021-01-14T04:36:03Z,42.805,6.029,13.2984,4.59986,2470.077,2021-1-14T06:37:04Z
2021-01-14T04:39:06Z,42.805,6.029,13.2984,4.59985,2470.087,2021-1-14T06:40:07Z
2021-01-14T04:42:09Z,42.805,6.029,13.2984,4.59984,2470.063,2021-1-14T06:43:10Z
2021-01-14T04:45:12Z,42.805,6.029,13.2982,4.59985,2470.11,2021-1-14T06:46:13Z
2021-01-14T04:48:15Z,42.805,6.029,13.2981,4.59984,2470.087,2021-1-14T06:49:16Z
2021-01-14T04:51:18Z,42.805,6.029,13.2982,4.59986,2470.1,2021-1-14T06:52:19Z
2021-01-14T04:54:21Z,42.805,6.029,13.2983,4.59988,2470.1,2021-1-14T06:55:23Z
2021-01-14T04:57:24Z,42.805,6.029,13.2986,4.59985,2470.124,2021-1-14T06:58:26Z
2021-01-14T05:00:28Z,42.805,6.029,13.2983,4.59990,2470.124,2021-1-14T07:01:29Z
2021-01-14T05:03:31Z,42.805,6.029,13.2983,4.59986,2470.133,2021-1-14T07:04:32Z
2021-01-14T05:06:34Z,42.805,6.029,13.2984,4.59984,2470.124,2021-1-14T07:07:35Z
2021-01-14T05:09:37Z,42.805,6.029,13.2979,4.59987,2470.133,2021-1-14T07:10:38Z
2021-01-14T05:12:40Z,42.805,6.029,13.2982,4.59988,2470.11,2021-1-14T07:13:41Z
2021-01-14T05:15:43Z,42.805,6.029,13.2984,4.59986,2470.133,2021-1-14T07:16:44Z
2021-01-14T05:18:46Z,42.805,6.029,13.2981,4.59987,2470.147,2021-1-14T07:19:48Z
2021-01-14T05:21:49Z,42.805,6.029,13.2982,4.59986,2470.11,2021-1-14T07:22:51Z
2021-01-14T05:24:53Z,42.805,6.029,13.2982,4.59984,2470.171,2021-1-14T07:25:54Z
2021-01-14T05:27:56Z,42.805,6.029,13.2983,4.59984,2470.11,2021-1-14T07:28:57Z
2021-01-14T05:30:59Z,42.805,6.029,13.2984,4.59985,2470.156,2021-1-14T07:32:00Z
2021-01-14T05:34:02Z,42.805,6.029,13.2982,4.59983,2470.147,2021-1-14T07:35:03Z
2021-01-14T05:37:05Z,42.805,6.029,13.2985,4.59986,2470.133,2021-1-14T07:38:06Z
2021-01-14T05:40:08Z,42.805,6.029,13.2984,4.59987,2470.194,2021-1-14T07:41:09Z
2021-01-14T05:43:11Z,42.805,6.029,13.2984,4.59989,2470.143,2021-1-14T07:44:13Z
2021-01-14T05:46:14Z,42.805,6.029,13.2983,4.59986,2470.156,2021-1-14T07:47:16Z
2021-01-14T05:49:17Z,42.805,6.029,13.2977,4.59984,2470.156,2021-1-14T07:50:19Z
2021-01-14T05:52:21Z,42.805,6.029,13.2984,4.59984,2470.203,2021-1-14T07:53:22Z
2021-01-14T05:55:24Z,42.805,6.029,13.2986,4.59985,2470.18,2021-1-14T07:56:25Z
2021-01-14T05:58:27Z,42.805,6.029,13.2983,4.59986,2470.156,2021-1-14T07:59:28Z
2021-01-14T06:01:30Z,42.805,6.029,13.2983,4.59985,2470.217,2021-1-14T08:02:31Z
2021-01-14T06:04:33Z,42.805,6.029,13.2983,4.59987,2470.18,2021-1-14T08:05:34Z
2021-01-14T06:07:36Z,42.805,6.029,13.2981,4.59985,2470.203,2021-1-14T08:08:38Z
2021-01-14T06:10:39Z,42.805,6.029,13.2982,4.59985,2470.194,2021-1-14T08:11:41Z
2021-01-14T06:13:42Z,42.805,6.029,13.2984,4.59986,2470.156,2021-1-14T08:14:44Z
2021-01-14T06:16:46Z,42.805,6.029,13.2981,4.59988,2470.203,2021-1-14T08:17:47Z
2021-01-14T06:19:49Z,42.805,6.029,13.2981,4.59986,2470.217,2021-1-14T08:20:50Z
2021-01-14T06:22:52Z,42.805,6.029,13.2980,4.59984,2470.203,2021-1-14T08:23:53Z
2021-01-14T06:25:55Z,42.805,6.029,13.2979,4.59985,2470.18,2021-1-14T08:26:56Z
2021-01-14T06:28:58Z,42.805,6.029,13.2983,4.59986,2470.217,2021-1-14T08:29:59Z
2021-01-14T06:32:01Z,42.805,6.029,13.2983,4.59991,2470.227,2021-1-14T08:33:03Z
2021-01-14T06:35:04Z,42.805,6.029,13.2980,4.59986,2470.24,2021-1-14T08:36:06Z
2021-01-14T06:38:07Z,42.805,6.029,13.2986,4.59986,2470.227,2021-1-14T08:39:09Z
2021-01-14T06:41:11Z,42.805,6.029,13.2982,4.59984,2470.25,2021-1-14T08:42:12Z
2021-01-14T06:44:14Z,42.805,6.029,13.2984,4.59987,2470.227,2021-1-14T08:45:15Z
2021-01-14T06:47:17Z,42.805,6.029,13.2984,4.59985,2470.227,2021-1-14T08:48:18Z
2021-01-14T06:50:20Z,42.805,6.029,13.2982,4.59986,2470.227,2021-1-14T08:51:21Z
2021-01-14T06:53:23Z,42.805,6.029,13.2979,4.59984,2470.25,2021-1-14T08:54:24Z
2021-01-14T06:56:26Z,42.805,6.029,13.2981,4.59984,2470.227,2021-1-14T08:57:27Z
2021-01-14T06:59:29Z,42.805,6.029,13.2982,4.59984,2470.227,2021-1-14T09:00:31Z
2021-01-14T07:02:32Z,42.805,6.029,13.2982,4.59988,2470.24,2021-1-14T09:03:34Z
2021-01-14T07:05:36Z,42.805,6.029,13.2986,4.59986,2470.25,2021-1-14T09:06:37Z
2021-01-14T07:08:39Z,42.805,6.029,13.2982,4.59985,2470.273,2021-1-14T09:09:40Z
2021-01-14T07:11:42Z,42.805,6.029,13.2979,4.59986,2470.287,2021-1-14T09:12:43Z
2021-01-14T07:14:45Z,42.805,6.029,13.2987,4.59987,2470.264,2021-1-14T09:15:46Z
2021-01-14T07:17:48Z,42.805,6.029,13.2990,4.59985,2470.25,2021-1-14T09:18:49Z
2021-01-14T07:20:51Z,42.805,6.029,13.2981,4.59986,2470.287,2021-1-14T09:21:52Z
2021-01-14T07:23:54Z,42.805,6.029,13.2982,4.59986,2470.287,2021-1-14T09:24:56Z
2021-01-14T07:26:57Z,42.805,6.029,13.2986,4.59985,2470.264,2021-1-14T09:27:59Z
2021-01-14T07:30:01Z,42.805,6.029,13.2986,4.59987,2470.24,2021-1-14T09:31:02Z
2021-01-14T07:33:04Z,42.805,6.029,13.2981,4.59985,2470.287,2021-1-14T09:34:05Z
2021-01-14T07:36:07Z,42.805,6.029,13.2979,4.59985,2470.25,2021-1-14T09:37:08Z
2021-01-14T07:39:10Z,42.805,6.029,13.2981,4.59984,2470.31,2021-1-14T09:40:11Z
2021-01-14T07:42:13Z,42.805,6.029,13.2981,4.59986,2470.227,2021-1-14T09:43:14Z
2021-01-14T07:45:16Z,42.805,6.029,13.2986,4.59989,2470.273,2021-1-14T09:46:17Z
2021-01-14T07:48:19Z,42.805,6.029,13.2986,4.59986,2470.264,2021-1-14T09:49:21Z
2021-01-14T07:51:22Z,42.805,6.029,13.2977,4.59988,2470.273,2021-1-14T09:52:24Z
2021-01-14T07:54:26Z,42.805,6.029,13.2981,4.59984,2470.297,2021-1-14T09:55:27Z
2021-01-14T07:57:29Z,42.805,6.029,13.2982,4.59986,2470.297,2021-1-14T09:58:30Z
2021-01-14T08:00:32Z,42.805,6.029,13.2986,4.59985,2470.297,2021-1-14T10:01:33Z
2021-01-14T08:03:35Z,42.805,6.029,13.2983,4.59986,2470.287,2021-1-14T10:04:36Z
2021-01-14T08:06:38Z,42.805,6.029,13.2982,4.59986,2470.273,2021-1-14T10:07:39Z
2021-01-14T08:09:41Z,42.805,6.029,13.2983,4.59986,2470.32,2021-1-14T10:10:42Z
2021-01-14T08:12:44Z,42.805,6.029,13.2985,4.59986,2470.297,2021-1-14T10:13:46Z
2021-01-14T08:15:47Z,42.805,6.029,13.2984,4.59986,2470.287,2021-1-14T10:16:49Z
2021-01-14T08:18:51Z,42.805,6.029,13.2983,4.59989,2470.24,2021-1-14T10:19:52Z
2021-01-14T08:21:54Z,42.805,6.029,13.2984,4.59986,2470.287,2021-1-14T10:22:55Z
2021-01-14T08:24:57Z,42.805,6.029,13.2983,4.59986,2470.273,2021-1-14T10:25:58Z
2021-01-14T08:28:00Z,42.805,6.029,13.2983,4.59987,2470.31,2021-1-14T10:29:01Z
2021-01-14T08:31:03Z,42.805,6.029,13.2982,4.59986,2470.297,2021-1-14T10:32:04Z
2021-01-14T08:34:06Z,42.805,6.029,13.2983,4.59988,2470.273,2021-1-14T10:35:07Z
2021-01-14T08:37:09Z,42.805,6.029,13.2982,4.59986,2470.297,2021-1-14T10:38:11Z
2021-01-14T08:40:12Z,42.805,6.029,13.2982,4.59987,2470.273,2021-1-14T10:41:14Z
2021-01-14T08:43:16Z,42.805,6.029,13.2983,4.59986,2470.25,2021-1-14T10:44:17Z
2021-01-14T08:46:19Z,42.805,6.029,13.2988,4.59986,2470.297,2021-1-14T10:47:20Z
2021-01-14T08:49:22Z,42.805,6.029,13.2984,4.59986,2470.273,2021-1-14T10:50:23Z
2021-01-14T08:52:25Z,42.805,6.029,13.2986,4.59986,2470.273,2021-1-14T10:53:26Z
2021-01-14T08:55:28Z,42.805,6.029,13.2982,4.59990,2470.297,2021-1-14T10:56:29Z
2021-01-14T08:58:31Z,42.805,6.029,13.2983,4.59986,2470.273,2021-1-14T10:59:33Z
2021-01-14T09:01:34Z,42.805,6.029,13.2981,4.59986,2470.273,2021-1-14T11:02:36Z
2021-01-14T09:04:37Z,42.805,6.029,13.2983,4.59986,2470.31,2021-1-14T11:05:39Z
2021-01-14T09:07:41Z,42.805,6.029,13.2986,4.59988,2470.273,2021-1-14T11:08:42Z
2021-01-14T09:10:44Z,42.805,6.029,13.2983,4.59986,2470.25,2021-1-14T11:11:45Z
2021-01-14T09:13:47Z,42.805,6.029,13.2983,4.59986,2470.297,2021-1-14T11:14:48Z
2021-01-14T09:16:50Z,42.805,6.029,13.2982,4.59986,2470.25,2021-1-14T11:17:51Z
2021-01-14T09:19:53Z,42.805,6.029,13.2982,4.59986,2470.287,2021-1-14T11:20:54Z
2021-01-14T09:22:56Z,42.805,6.029,13.2979,4.59986,2470.236,2021-1-14T11:23:58Z
2021-01-14T09:25:59Z,42.805,6.029,13.2981,4.59986,2470.297,2021-1-14T11:27:01Z
2021-01-14T09:29:02Z,42.805,6.029,13.2986,4.59986,2470.264,2021-1-14T11:30:04Z
2021-01-14T09:32:06Z,42.805,6.029,13.2979,4.59986,2470.264,2021-1-14T11:33:07Z
2021-01-14T09:35:09Z,42.805,6.029,13.2983,4.59986,2470.287,2021-1-14T11:36:10Z
2021-01-14T09:38:12Z,42.805,6.029,13.2983,4.59986,2470.25,2021-1-14T11:39:13Z
2021-01-14T09:41:15Z,42.805,6.029,13.2983,4.59986,2470.287,2021-1-14T11:42:16Z
2021-01-14T09:44:18Z,42.805,6.029,13.2983,4.59986,2470.287,2021-1-14T11:45:19Z
2021-01-14T09:47:21Z,42.805,6.029,13.2982,4.59986,2470.25,2021-1-14T11:48:23Z
2021-01-14T09:50:24Z,42.805,6.029,13.2983,4.59986,2470.264,2021-1-14T11:51:26Z
2021-01-14T09:53:28Z,42.805,6.029,13.2983,4.59989,2470.273,2021-1-14T11:54:29Z
2021-01-14T09:56:31Z,42.805,6.029,13.2982,4.59986,2470.264,2021-1-14T11:57:32Z
2021-01-14T09:59:34Z,42.805,6.029,13.2983,4.59986,2470.25,2021-1-14T12:00:35Z
2021-01-14T10:02:37Z,42.805,6.029,13.2983,4.59986,2470.264,2021-1-14T12:03:38Z
2021-01-14T10:05:40Z,42.805,6.029,13.2986,4.59986,2470.25,2021-1-14T12:06:41Z
2021-01-14T10:08:43Z,42.805,6.029,13.2984,4.59986,2470.273,2021-1-14T12:09:44Z
2021-01-14T10:11:46Z,42.805,6.029,13.2982,4.59986,2470.25,2021-1-14T12:12:48Z
2021-01-14T10:14:49Z,42.805,6.029,13.2983,4.59986,2470.25,2021-1-14T12:15:51Z
2021-01-14T10:17:53Z,42.805,6.029,13.2983,4.59986,2470.264,2021-1-14T12:18:54Z
2021-01-14T10:20:56Z,42.805,6.029,13.2984,4.59986,2470.227,2021-1-14T12:21:57Z
2021-01-14T10:23:59Z,42.805,6.029,13.2984,4.59986,2470.25,2021-1-14T12:25:00Z
2021-01-14T10:27:02Z,42.805,6.029,13.2983,4.59986,2470.227,2021-1-14T12:28:03Z
2021-01-14T10:30:05Z,42.805,6.029,13.2980,4.59986,2470.217,2021-1-14T12:31:06Z
2021-01-14T10:33:08Z,42.805,6.029,13.2980,4.59989,2470.287,2021-1-14T12:34:09Z
2021-01-14T10:36:11Z,42.805,6.029,13.2985,4.59988,2470.227,2021-1-14T12:37:13Z
2021-01-14T10:39:14Z,42.805,6.029,13.2981,4.59986,2470.217,2021-1-14T12:40:16Z
2021-01-14T10:42:18Z,42.805,6.029,13.2983,4.59986,2470.203,2021-1-14T12:43:19Z
2021-01-14T10:45:21Z,42.805,6.029,13.2982,4.59986,2470.264,2021-1-14T12:46:22Z
2021-01-14T10:48:24Z,42.805,6.029,13.2986,4.59986,2470.227,2021-1-14T12:49:25Z
2021-01-14T10:51:27Z,42.805,6.029,13.2983,4.59988,2470.203,2021-1-14T12:52:28Z
2021-01-14T10:54:30Z,42.805,6.029,13.2984,4.59987,2470.24,2021-1-14T12:55:31Z
2021-01-14T10:57:33Z,42.805,6.029,13.2980,4.59986,2470.203,2021-1-14T12:58:34Z
2021-01-14T11:00:36Z,42.805,6.029,13.2986,4.59986,2470.227,2021-1-14T13:01:38Z
2021-01-14T11:03:39Z,42.805,6.029,13.2981,4.59986,2470.203,2021-1-14T13:04:41Z
2021-01-14T11:06:43Z,42.805,6.029,13.2983,4.59986,2470.203,2021-1-14T13:07:44Z
2021-01-14T11:09:46Z,42.805,6.029,13.2983,4.59986,2470.24,2021-1-14T13:10:47Z
2021-01-14T11:12:49Z,42.805,6.029,13.2983,4.59986,2470.217,2021-1-14T13:13:50Z
2021-01-14T11:15:52Z,42.805,6.029,13.2984,4.59986,2470.203,2021-1-14T13:16:53Z
2021-01-14T11:18:55Z,42.805,6.029,13.2983,4.59986,2470.24,2021-1-14T13:19:56Z
2021-01-14T11:21:58Z,42.805,6.029,13.2984,4.59986,2470.203,2021-1-14T13:23:00Z
2021-01-14T11:25:01Z,42.805,6.029,13.2982,4.59989,2470.227,2021-1-14T13:26:03Z
2021-01-14T11:28:04Z,42.805,6.029,13.2984,4.59986,2470.203,2021-1-14T13:29:06Z
2021-01-14T11:31:08Z,42.805,6.029,13.2983,4.59987,2470.194,2021-1-14T13:32:09Z
2021-01-14T11:34:11Z,42.805,6.029,13.2983,4.59986,2470.18,2021-1-14T13:35:12Z
2021-01-14T11:37:14Z,42.805,6.029,13.2982,4.59986,2470.203,2021-1-14T13:38:15Z
2021-01-14T11:40:17Z,42.805,6.029,13.2982,4.59985,2470.217,2021-1-14T13:41:18Z
2021-01-14T11:43:20Z,42.805,6.029,13.2982,4.59985,2470.171,2021-1-14T13:44:21Z
2021-01-14T11:46:23Z,42.805,6.029,13.2983,4.59986,2470.156,2021-1-14T13:47:25Z
2021-01-14T11:49:26Z,42.805,6.029,13.2983,4.59985,2470.18,2021-1-14T13:50:28Z
2021-01-14T11:52:29Z,42.805,6.029,13.2983,4.59986,2470.156,2021-1-14T13:53:31Z
2021-01-14T11:55:33Z,42.805,6.029,13.2983,4.59986,2470.217,2021-1-14T13:56:34Z
2021-01-14T11:58:36Z,42.805,6.029,13.2982,4.59985,2470.18,2021-1-14T13:59:37Z
2021-01-14T12:01:39Z,42.805,6.029,13.2981,4.59986,2470.18,2021-1-14T14:02:40Z
2021-01-14T12:04:42Z,42.805,6.029,13.2985,4.59986,2470.156,2021-1-14T14:05:43Z
2021-01-14T12:07:45Z,42.805,6.029,13.2985,4.59985,2470.147,2021-1-14T14:08:46Z
2021-01-14T12:10:48Z,42.805,6.029,13.2985,4.59987,2470.156,2021-1-14T14:11:50Z
2021-01-14T12:13:51Z,42.805,6.029,13.2986,4.59986,2470.147,2021-1-14T14:14:53Z
2021-01-14T12:16:54Z,42.805,6.029,13.2982,4.59986,2470.133,2021-1-14T14:17:56Z
2021-01-14T12:19:58Z,42.805,6.029,13.2983,4.59987,2470.133,2021-1-14T14:20:59Z
2021-01-14T12:23:01Z,42.805,6.029,13.2982,4.59987,2470.156,2021-1-14T14:24:02Z
2021-01-14T12:26:04Z,42.805,6.029,13.2979,4.59986,2470.156,2021-1-14T14:27:05Z
2021-01-14T12:29:07Z,42.805,6.029,13.2981,4.59986,2470.147,2021-1-14T14:30:08Z
2021-01-14T12:32:10Z,42.805,6.029,13.2985,4.59987,2470.147,2021-1-14T14:33:11Z
2021-01-14T12:35:13Z,42.805,6.029,13.2986,4.59985,2470.147,2021-1-14T14:36:15Z
2021-01-14T12:38:16Z,42.805,6.029,13.2983,4.59986,2470.133,2021-1-14T14:39:18Z
2021-01-14T12:41:20Z,42.805,6.029,13.2980,4.59986,2470.147,2021-1-14T14:42:21Z
2021-01-14T12:44:23Z,42.805,6.029,13.2985,4.59986,2470.11,2021-1-14T14:45:24Z
2021-01-14T12:47:26Z,42.805,6.029,13.2984,4.59987,2470.087,2021-1-14T14:48:27Z
2021-01-14T12:50:29Z,42.805,6.029,13.2986,4.59986,2470.147,2021-1-14T14:51:30Z
2021-01-14T12:53:32Z,42.805,6.029,13.2979,4.59986,2470.11,2021-1-14T14:54:33Z
2021-01-14T12:56:35Z,42.805,6.029,13.2985,4.59986,2470.124,2021-1-14T14:57:36Z
2021-01-14T12:59:38Z,42.805,6.029,13.2982,4.59986,2470.1,2021-1-14T15:00:40Z
2021-01-14T13:02:41Z,42.805,6.029,13.2985,4.59986,2470.124,2021-1-14T15:03:43Z
2021-01-14T13:05:45Z,42.805,6.029,13.2983,4.59991,2470.11,2021-1-14T15:06:46Z
2021-01-14T13:08:48Z,42.805,6.029,13.2990,4.59986,2470.124,2021-1-14T15:09:49Z
2021-01-14T13:11:51Z,42.805,6.029,13.2983,4.59986,2470.147,2021-1-14T15:12:52Z
2021-01-14T13:14:54Z,42.805,6.029,13.2982,4.59985,2470.1,2021-1-14T15:15:55Z
2021-01-14T13:17:57Z,42.805,6.029,13.2985,4.59985,2470.1,2021-1-14T15:18:58Z
2021-01-14T13:21:00Z,42.805,6.029,13.2982,4.59985,2470.087,2021-1-14T15:22:02Z
2021-01-14T13:24:03Z,42.805,6.029,13.2982,4.59985,2470.077,2021-1-14T15:25:05Z
2021-01-14T13:27:06Z,42.805,6.029,13.2982,4.59986,2470.1,2021-1-14T15:28:08Z
2021-01-14T13:30:10Z,42.805,6.029,13.2986,4.59986,2470.11,2021-1-14T15:31:11Z
2021-01-14T13:33:13Z,42.805,6.029,13.2979,4.59986,2470.063,2021-1-14T15:34:14Z
2021-01-14T13:36:16Z,42.805,6.029,13.2986,4.59987,2470.11,2021-1-14T15:37:17Z
2021-01-14T13:39:19Z,42.805,6.029,13.2984,4.59985,2470.1,2021-1-14T15:40:20Z
2021-01-14T13:42:22Z,42.805,6.029,13.2983,4.59986,2470.077,2021-1-14T15:43:23Z
2021-01-14T13:45:25Z,42.805,6.029,13.2986,4.59986,2470.049,2021-1-14T15:46:27Z
2021-01-14T13:48:28Z,42.805,6.029,13.2982,4.59985,2470.077,2021-1-14T15:49:30Z
2021-01-14T13:51:31Z,42.805,6.029,13.2986,4.59987,2470.04,2021-1-14T15:52:33Z
2021-01-14T13:54:35Z,42.805,6.029,13.2986,4.59987,2470.063,2021-1-14T15:55:36Z
2021-01-14T13:57:38Z,42.805,6.029,13.2983,4.59985,2470.063,2021-1-14T15:58:39Z
2021-01-14T14:00:41Z,42.805,6.029,13.2982,4.59985,2470.114,2021-1-14T16:01:42Z
2021-01-14T14:03:44Z,42.805,6.029,13.2984,4.59986,2470.1,2021-1-14T16:04:45Z
2021-01-14T14:06:47Z,42.805,6.029,13.2984,4.59985,2470.003,2021-1-14T16:07:48Z
2021-01-14T14:09:50Z,42.805,6.029,13.2983,4.59986,2470.03,2021-1-14T16:10:52Z
2021-01-14T14:12:53Z,42.805,6.029,13.2989,4.59986,2470.053,2021-1-14T16:13:55Z
2021-01-14T14:15:57Z,42.805,6.029,13.2986,4.59986,2470.063,2021-1-14T16:16:58Z
2021-01-14T14:19:00Z,42.805,6.029,13.2983,4.59986,2470.063,2021-1-14T16:20:01Z
2021-01-14T14:22:03Z,42.805,6.029,13.2982,4.59986,2470.077,2021-1-14T16:23:04Z
2021-01-14T14:25:06Z,42.805,6.029,13.2983,4.59986,2470.077,2021-1-14T16:26:07Z
2021-01-14T14:28:09Z,42.805,6.029,13.2981,4.59986,2470.063,2021-1-14T16:29:10Z
2021-01-14T14:31:12Z,42.805,6.029,13.2979,4.59985,2470.087,2021-1-14T16:32:13Z
2021-01-14T14:34:15Z,42.805,6.029,13.2987,4.59986,2470.063,2021-1-14T16:35:17Z
2021-01-14T14:37:18Z,42.805,6.029,13.2982,4.59986,2470.077,2021-1-14T16:38:20Z
2021-01-14T14:40:22Z,42.805,6.029,13.2983,4.59986,2470.04,2021-1-14T16:41:23Z
2021-01-14T14:43:25Z,42.805,6.029,13.2982,4.59988,2470.087,2021-1-14T16:44:26Z
2021-01-14T14:46:28Z,42.805,6.029,13.2979,4.59986,2470.063,2021-1-14T16:47:29Z
2021-01-14T14:49:31Z,42.805,6.029,13.2981,4.59987,2470.087,2021-1-14T16:50:32Z
2021-01-14T14:52:34Z,42.805,6.029,13.2981,4.59986,2470.053,2021-1-14T16:53:35Z
2021-01-14T14:55:37Z,42.805,6.029,13.2982,4.59985,2470.053,2021-1-14T16:56:39Z
2021-01-14T14:58:40Z,42.805,6.029,13.2983,4.59986,2470.04,2021-1-14T16:59:42Z
2021-01-14T15:01:43Z,42.805,6.029,13.2985,4.59988,2470.063,2021-1-14T17:02:45Z
2021-01-14T15:04:47Z,42.805,6.029,13.2984,4.59991,2470.017,2021-1-14T17:05:48Z
2021-01-14T15:07:50Z,42.805,6.029,13.2987,4.59986,2470.017,2021-1-14T17:08:51Z
2021-01-14T15:10:53Z,42.805,6.029,13.2983,4.59987,2470.017,2021-1-14T17:11:54Z
2021-01-14T15:13:56Z,42.805,6.029,13.2983,4.59987,2470.017,2021-1-14T17:14:57Z